LA5NNA Weather Reports


time (UTC)temp
F
wind
direction
speed
knots
gust
knots
rain 1hr
in
rain 24hr
in
rain mn
in
humidity
%
barometer
mb
20260506180011 49 301 10.4 14.8 0.00 0.00 0.00 57 1011.0
20260506175507 49 310 10.4 14.8 0.00 0.00 0.00 57 1011.0
20260506175007 49 307 10.4 15.6 0.00 0.00 0.00 57 1011.0
20260506174507 49 311 9.6 15.6 0.00 0.00 0.00 57 1011.0
20260506174007 49 304 12.2 18.2 0.00 0.00 0.00 57 1010.9
20260506173507 49 303 10.4 14.8 0.00 0.00 0.00 57 1011.0
20260506173011 49 305 11.3 18.2 0.00 0.00 0.00 58 1011.0
20260506172507 49 307 11.3 18.2 0.00 0.00 0.00 58 1010.9
20260506172007 49 298 12.2 18.2 0.00 0.00 0.00 58 1010.8
20260506171507 49 305 13.9 21.7 0.00 0.00 0.00 58 1010.8
20260506171007 49 304 13.0 21.7 0.00 0.00 0.00 59 1010.8
20260506170507 49 294 14.8 24.3 0.00 0.00 0.00 59 1010.7
20260506170011 49 299 13.9 22.6 0.00 0.00 0.00 59 1010.8
20260506165507 49 302 14.8 21.7 0.00 0.00 0.00 59 1010.8
20260506164007 49 296 16.5 24.3 0.00 0.00 0.00 59 1010.9
20260506163507 49 298 15.6 20.9 0.00 0.00 0.00 59 1011.0
20260506163011 49 300 15.6 21.7 0.00 0.00 0.00 59 1011.0
20260506162507 49 299 15.6 21.7 0.00 0.00 0.00 59 1011.0
20260506161507 49 304 17.4 24.3 0.00 0.00 0.00 59 1011.0
20260506161007 49 294 17.4 25.2 0.00 0.00 0.00 59 1011.0
20260506160507 49 307 14.8 26.9 0.00 0.00 0.00 59 1011.0
20260506160010 49 304 17.4 26.1 0.00 0.00 0.00 59 1011.1
20260506155507 49 298 17.4 22.6 0.00 0.00 0.00 60 1010.9
20260506155007 50 301 19.1 22.6 0.00 0.00 0.00 60 1011.1
20260506154007 50 299 15.6 22.6 0.00 0.00 0.00 60 1011.0
20260506153507 50 298 17.4 25.2 0.00 0.00 0.00 60 1011.1
20260506153011 50 300 15.6 24.3 0.00 0.00 0.00 59 1011.0
20260506152507 50 302 15.6 21.7 0.00 0.00 0.00 61 1011.0
20260506152007 50 293 16.5 21.7 0.00 0.00 0.00 60 1010.9
20260506151507 50 303 15.6 24.3 0.00 0.00 0.00 61 1011.1
20260506151006 50 299 17.4 22.6 0.00 0.00 0.00 61 1011.0
20260506150506 50 300 14.8 20.0 0.00 0.00 0.00 62 1011.1
20260506150010 50 290 14.8 20.9 0.00 0.00 0.00 62 1011.0
20260506145506 50 283 13.0 20.0 0.00 0.00 0.00 63 1011.1
20260506144507 50 284 12.2 21.7 0.00 0.00 0.00 63 1011.2
20260506144007 50 284 13.9 24.3 0.00 0.00 0.00 63 1011.2
20260506143506 50 282 12.2 20.0 0.00 0.00 0.00 62 1011.2
20260506143011 50 287 14.8 20.0 0.00 0.00 0.00 62 1011.3
20260506142507 50 289 14.8 20.9 0.00 0.00 0.00 62 1011.3
20260506142007 50 288 13.9 21.7 0.00 0.00 0.00 62 1011.4
20260506141506 51 280 13.9 22.6 0.00 0.00 0.00 62 1011.3
20260506141007 51 293 17.4 22.6 0.00 0.00 0.00 62 1011.3
20260506140507 51 291 15.6 21.7 0.00 0.00 0.00 63 1011.4
20260506140010 50 284 12.2 20.0 0.00 0.00 0.00 63 1011.5
20260506135506 50 296 13.9 21.7 0.00 0.00 0.00 64 1011.5
20260506135007 50 280 12.2 20.0 0.00 0.00 0.00 64 1011.4
20260506134507 50 281 13.0 21.7 0.00 0.00 0.00 64 1011.5
20260506133506 50 271 13.0 20.0 0.00 0.00 0.00 65 1011.5
20260506133011 50 271 13.9 24.3 0.00 0.00 0.00 65 1011.5
20260506132006 50 267 13.9 20.0 0.00 0.00 0.00 65 1011.6
20260506131006 50 264 13.9 20.0 0.00 0.00 0.00 65 1011.7
20260506130507 50 262 12.2 24.3 0.00 0.00 0.00 65 1011.7
20260506130010 50 269 13.0 20.0 0.00 0.00 0.00 65 1011.7
20260506125506 50 271 14.8 20.0 0.00 0.00 0.00 66 1011.7
20260506125322 50 273 12.2 18.2 0.00 0.00 0.00 66 1011.7
20260506124506 50 267 13.9 20.9 0.00 0.00 0.00 66 1011.8
20260506124006 50 275 14.8 21.7 0.00 0.00 0.00 67 1011.8
20260506123506 50 271 13.0 19.1 0.00 0.00 0.00 67 1011.8
20260506123011 50 269 12.2 19.1 0.00 0.00 0.00 67 1011.8
20260506122506 50 262 12.2 20.9 0.00 0.00 0.00 67 1011.9
20260506122006 50 270 13.9 21.7 0.00 0.00 0.00 66 1011.8
20260506121506 50 272 14.8 22.6 0.00 0.00 0.00 67 1011.8
20260506121006 50 261 12.2 19.1 0.00 0.00 0.00 67 1011.8
20260506120010 50 259 12.2 19.1 0.00 0.00 0.00 66 1012.0
20260506115506 50 264 13.0 20.0 0.00 0.00 0.00 66 1012.1
20260506115006 50 261 13.0 19.1 0.00 0.00 0.00 66 1012.2
20260506114507 50 264 13.9 20.9 0.00 0.00 0.00 66 1012.1
20260506114007 49 262 13.9 20.9 0.00 0.00 0.00 66 1012.1
20260506113506 49 261 13.0 20.0 0.00 0.00 0.00 66 1012.0
20260506112506 49 264 13.9 20.0 0.00 0.00 0.00 65 1012.1
20260506112006 49 270 14.8 20.9 0.00 0.00 0.00 65 1012.0
20260506111506 49 273 13.9 20.0 0.00 0.00 0.00 65 1012.1
20260506111006 49 270 13.9 20.0 0.00 0.00 0.00 65 1012.1
20260506110506 49 267 13.9 20.9 0.00 0.00 0.00 64 1012.1
20260506110010 49 269 12.2 19.1 0.00 0.00 0.00 64 1012.2
20260506105506 49 261 11.3 19.1 0.00 0.00 0.00 64 1012.4
20260506105006 49 262 12.2 17.4 0.00 0.00 0.00 64 1012.2
20260506104007 49 262 11.3 18.2 0.00 0.00 0.00 62 1012.4
20260506103506 49 263 12.2 18.2 0.00 0.00 0.00 62 1012.4
20260506102507 49 263 10.4 17.4 0.00 0.00 0.00 62 1012.5
20260506102006 49 265 10.4 15.6 0.00 0.00 0.00 62 1012.5
20260506101506 49 262 10.4 17.4 0.00 0.00 0.00 60 1012.5
20260506101006 49 260 8.7 15.6 0.00 0.00 0.00 61 1012.6
20260506100009 48 263 8.7 13.9 0.00 0.00 0.00 61 1012.6
20260506095506 48 268 8.7 13.9 0.00 0.00 0.00 60 1012.6
20260506095006 48 262 8.7 13.0 0.00 0.00 0.00 60 1012.6
20260506094506 48 255 7.8 13.9 0.00 0.00 0.00 60 1012.6
20260506093507 47 256 7.0 12.2 0.00 0.00 0.00 59 1012.7
20260506093010 47 261 7.8 12.2 0.00 0.00 0.00 59 1012.7
20260506092506 47 256 5.2 11.3 0.00 0.00 0.00 57 1012.6
20260506092006 47 233 4.3 7.8 0.00 0.00 0.00 57 1012.7
20260506091506 47 209 4.3 10.4 0.00 0.00 0.00 57 1012.7
20260506091006 47 194 6.1 11.3 0.00 0.00 0.00 58 1012.7
20260506090506 47 220 2.6 10.4 0.00 0.00 0.00 58 1012.7
20260506090009 47 260 5.2 10.4 0.00 0.00 0.00 58 1012.7
20260506085506 47 245 3.5 7.8 0.00 0.00 0.00 58 1012.7
20260506085007 47 278 4.3 10.4 0.00 0.00 0.00 58 1012.7
20260506084006 47 266 7.0 11.3 0.00 0.00 0.00 59 1012.7
20260506083010 46 260 5.2 10.4 0.00 0.00 0.00 59 1012.7
20260506082506 46 272 5.2 7.8 0.00 0.00 0.00 59 1012.7
20260506082006 46 270 5.2 7.8 0.00 0.00 0.00 60 1012.7
20260506081506 45 261 4.3 7.8 0.00 0.00 0.00 61 1012.7
20260506081006 45 280 4.3 7.8 0.00 0.00 0.00 61 1012.7
20260506080506 45 269 3.5 7.8 0.00 0.00 0.00 61 1012.6
20260506073509 43 308 4.3 6.1 0.00 0.00 0.00 63 1012.7
20260506072508 42 321 2.6 6.1 0.00 0.00 0.00 63 1012.7
20260506072008 42 328 1.7 7.0 0.00 0.00 0.00 64 1012.7
20260506071508 42 6 2.6 7.0 0.00 0.00 0.00 64 1012.8
20260506071008 41 7 2.6 7.0 0.00 0.00 0.00 64 1012.8
20260506070508 41 339 2.6 7.0 0.00 0.00 0.00 65 1012.7
20260506062008 39 25 2.6 6.1 0.00 0.00 0.00 67 1012.8
20260506061508 39 5 1.7 5.2 0.00 0.00 0.00 67 1012.7
20260506061008 39 355 3.5 7.0 0.00 0.00 0.00 67 1012.7
20260506060509 39 328 1.7 6.1 0.00 0.00 0.00 67 1012.8
20260506050509 39 32 1.7 4.3 0.00 0.00 0.00 67 1013.0
20260506045008 39 13 2.6 5.2 0.00 0.00 0.00 67 1012.8
20260506044508 38 39 2.6 5.2 0.00 0.00 0.00 66 1012.9
20260506044008 38 58 1.7 2.6 0.00 0.00 0.00 66 1012.9
20260506043508 39 52 1.7 2.6 0.00 0.00 0.00 66 1012.9
20260506042008 39 45 1.7 4.3 0.00 0.00 0.00 66 1012.9
20260506041508 39 54 1.7 4.3 0.00 0.00 0.00 66 1012.9
20260506041008 39 51 1.7 2.6 0.00 0.00 0.00 66 1012.9
20260506040508 39 66 1.7 4.3 0.00 0.00 0.00 66 1012.8
20260506040012 39 68 2.6 4.3 0.00 0.00 0.00 66 1012.8
20260506035508 39 52 1.7 2.6 0.00 0.00 0.00 66 1012.8
20260506035008 39 26 1.7 4.3 0.00 0.00 0.00 66 1012.8
20260506034508 39 61 1.7 2.6 0.00 0.00 0.00 66 1012.7
20260506034008 39 47 1.7 2.6 0.00 0.00 0.00 66 1012.7
20260506033508 39 61 1.7 5.2 0.00 0.00 0.00 66 1012.6
20260506033012 39 45 1.7 4.3 0.00 0.00 0.00 66 1012.7
20260506032008 40 47 1.7 2.6 0.00 0.00 0.00 66 1012.7
20260506031508 40 51 1.7 4.3 0.00 0.00 0.00 66 1012.6
20260506031008 40 42 2.6 4.3 0.00 0.00 0.00 66 1012.5
20260506030508 40 38 1.7 4.3 0.00 0.00 0.00 66 1012.5
20260506030011 40 43 2.6 4.3 0.00 0.00 0.00 66 1012.6
20260506025509 40 21 2.6 4.3 0.00 0.00 0.00 66 1012.8
20260506025008 40 21 2.6 4.3 0.00 0.00 0.00 66 1012.7
20260506024508 40 11 2.6 2.6 0.00 0.00 0.00 66 1012.6
20260506024008 40 33 2.6 2.6 0.00 0.00 0.00 66 1012.8
20260506023508 40 73 1.7 2.6 0.00 0.00 0.00 65 1012.8
20260506022508 40 302 1.7 2.6 0.00 0.00 0.00 65 1012.7
20260506022008 41 69 1.7 2.6 0.00 0.00 0.00 65 1012.8
20260506021508 41 80 1.7 2.6 0.00 0.00 0.00 65 1012.8
20260506021008 41 32 0.9 4.3 0.00 0.00 0.00 65 1012.7
20260506020508 41 333 2.6 4.3 0.00 0.00 0.00 65 1012.6
20260506020011 41 309 1.7 6.1 0.00 0.00 0.00 65 1012.6
20260506015508 40 324 4.3 7.0 0.00 0.00 0.00 65 1012.6
20260506015008 41 320 5.2 7.0 0.00 0.00 0.00 65 1012.6
20260506014508 41 318 4.3 7.0 0.00 0.00 0.00 65 1012.5
20260506013508 41 316 5.2 7.0 0.00 0.00 0.00 65 1012.7
20260506013011 41 317 5.2 7.8 0.00 0.00 0.00 65 1012.6
20260506012508 41 318 5.2 7.8 0.00 0.00 0.00 64 1012.6
20260506012008 41 321 5.2 8.7 0.00 0.00 0.00 64 1012.6
20260506011508 41 317 4.3 6.1 0.00 0.00 0.00 64 1012.6
20260506011008 41 344 1.7 5.2 0.00 0.00 0.00 64 1012.5
20260506010508 41 337 2.6 5.2 0.00 0.00 0.00 64 1012.6
20260506010011 41 323 2.6 5.2 0.00 0.00 0.00 64 1012.6
20260506005508 41 329 1.7 4.3 0.00 0.00 0.00 64 1012.6
20260506005007 41 293 0.9 4.3 0.00 0.00 0.00 64 1012.6
20260506004508 41 346 1.7 7.0 0.00 0.00 0.00 63 1012.5
20260506004008 41 336 1.7 6.1 0.00 0.00 0.00 63 1012.5
20260506003508 41 345 0.9 6.1 0.00 0.00 0.00 63 1012.6
20260506002508 42 325 2.6 7.0 0.00 0.00 0.00 63 1012.5
20260506001508 42 335 0.9 2.6 0.00 0.00 0.00 63 1012.4
20260506001008 42 343 1.7 5.2 0.00 0.00 0.00 63 1012.4
20260506000508 42 315 1.7 5.2 0.00 0.00 0.00 63 1012.5
20260506000011 41 15 1.7 2.6 0.00 0.00 0.00 62 1012.3
20260505235508 41 27 1.7 5.2 0.00 0.00 0.00 62 1012.4
20260505235008 41 330 1.7 5.2 0.00 0.00 0.00 62 1012.4
20260505234507 41 25 2.6 6.1 0.00 0.00 0.00 62 1012.5
20260505234008 41 350 1.7 7.0 0.00 0.00 0.00 62 1012.4
20260505233011 41 348 2.6 7.8 0.00 0.00 0.00 62 1012.4
20260505232507 41 334 5.2 10.4 0.00 0.00 0.00 62 1012.4
20260505232008 41 332 4.3 8.7 0.00 0.00 0.00 62 1012.4
20260505231507 42 345 4.3 8.7 0.00 0.00 0.00 62 1012.5
20260505230507 42 325 5.2 10.4 0.00 0.00 0.00 62 1012.4
20260505225508 42 323 4.3 7.8 0.00 0.00 0.00 62 1012.5
20260505225007 42 327 2.6 7.0 0.00 0.00 0.00 62 1012.4
20260505224508 42 290 1.7 6.1 0.00 0.00 0.00 61 1012.5
20260505224007 42 325 4.3 10.4 0.00 0.00 0.00 61 1012.4
20260505223507 42 322 5.2 7.8 0.00 0.00 0.00 61 1012.4
20260505223011 42 325 4.3 7.8 0.00 0.00 0.00 61 1012.6
20260505222507 42 321 1.7 11.3 0.00 0.00 0.00 61 1012.6
20260505222008 42 336 2.6 7.8 0.00 0.00 0.00 61 1012.3
20260505221507 42 342 4.3 8.7 0.00 0.00 0.00 61 1012.3
20260505221007 42 335 2.6 8.7 0.00 0.00 0.00 61 1012.5
20260505220012 42 338 6.1 11.3 0.00 0.00 0.00 60 1012.3
20260505215507 42 328 4.3 10.4 0.00 0.00 0.00 60 1012.5
20260505215008 42 327 5.2 11.3 0.00 0.00 0.00 60 1012.5
20260505214507 42 326 4.3 11.3 0.00 0.00 0.00 60 1012.5
20260505214007 43 327 6.1 10.4 0.00 0.00 0.00 60 1012.4
20260505213507 43 326 6.1 11.3 0.00 0.00 0.00 60 1012.3
20260505213011 43 335 6.1 11.3 0.00 0.00 0.00 60 1012.4
20260505212508 43 331 4.3 10.4 0.00 0.00 0.00 60 1012.4
20260505212008 43 318 6.1 10.4 0.00 0.00 0.00 60 1012.4
20260505211008 43 326 4.3 11.3 0.00 0.00 0.00 62 1012.5
20260505210507 43 324 5.2 8.7 0.00 0.00 0.00 62 1012.4
20260505210011 43 324 5.2 8.7 0.00 0.00 0.00 62 1012.3
20260505205508 43 322 6.1 8.7 0.00 0.00 0.00 62 1012.2
20260505205007 43 319 5.2 7.8 0.00 0.00 0.00 62 1012.2
20260505204508 43 319 6.1 10.4 0.00 0.00 0.00 63 1012.2
20260505204007 44 318 7.0 8.7 0.00 0.00 0.00 63 1012.1
20260505203507 44 323 7.8 10.4 0.00 0.00 0.00 63 1012.0
20260505203011 44 318 7.0 10.4 0.00 0.00 0.00 63 1012.1
20260505202507 44 313 7.8 11.3 0.00 0.00 0.00 63 1012.1
20260505202008 44 311 7.8 11.3 0.00 0.00 0.00 63 1012.0
20260505201008 44 319 10.4 13.0 0.00 0.00 0.00 64 1011.8
20260505200507 44 318 9.6 13.9 0.00 0.00 0.00 64 1011.8
20260505200011 44 316 8.7 13.0 0.00 0.00 0.00 65 1011.7
20260505195507 44 321 8.7 13.0 0.00 0.00 0.00 65 1011.6
20260505195007 44 319 8.7 13.9 0.00 0.00 0.00 65 1011.7
20260505194507 44 317 10.4 13.9 0.00 0.00 0.00 66 1011.7
20260505194007 44 314 9.6 13.9 0.00 0.00 0.00 65 1011.6
20260505193507 44 315 8.7 14.8 0.00 0.00 0.00 65 1011.6
20260505193011 44 316 10.4 13.9 0.00 0.00 0.00 65 1011.6
20260505192007 44 311 9.6 13.9 0.00 0.00 0.00 64 1011.6
20260505191507 45 311 10.4 14.8 0.00 0.00 0.00 64 1011.7
20260505190011 45 312 10.4 15.6 0.00 0.00 0.00 63 1011.4
20260505185007 45 314 10.4 17.4 0.00 0.00 0.00 63 1011.3
20260505184507 45 318 11.3 14.8 0.00 0.00 0.00 64 1011.2
20260505184007 45 311 10.4 13.9 0.00 0.00 0.00 63 1011.3
20260505183507 45 302 8.7 13.9 0.00 0.00 0.00 63 1011.3
20260505182507 46 300 11.3 17.4 0.00 0.00 0.00 63 1011.2
20260505181507 46 304 13.0 19.1 0.00 0.00 0.00 64 1011.2
20260505181007 46 309 12.2 17.4 0.00 0.00 0.00 64 1011.3
20260505180507 46 304 10.4 17.4 0.00 0.00 0.00 64 1011.3